Port Huron, MI

10:01 PM EDT on June 23, 2017 (GMT -0400)
Saint Clair County International

Weather History for KPHN - December, 2013

Change the Weather History Date:

Wednesday, December 11, 2013

  Actual Average (KMTC) Record (KMTC)
Temperature  
Mean Temperature 14 °F -  
Max Temperature 21 °F 33 °F 59 °F (1979)
Min Temperature 6 °F 24 °F 1 °F (1977)
Degree Days  
Heating Degree Days 52    
Moisture  
Dew Point 8 °F    
Average Humidity 70    
Maximum Humidity 93    
Minimum Humidity 57    
Precipitation  
Precipitation 0.00 in - - ()
Sea Level Pressure  
Sea Level Pressure 30.26 in    
Wind  
Wind Speed 5 mph (West)    
Max Wind Speed 15 mph    
Max Gust Speed 18 mph    
Visibility 8 miles    
Events Snow    
Averages and records for this station are not official NWS values.
T = Trace of Precipitation, MM = Missing Value Source: NWS Daily Summary

Daily Weather History Graph

Daily Weather History Graph

Search for Another Location

Airport or City:

Trip Planner

Search our weather history database for the weather conditions in past years. The results will help you decide how hot, cold, wet, or windy it might be!

Date:

Astronomy

Dec. 11, 2013 Rise Set
Actual Time 7:51 AM EST 4:55 PM EST
Civil Twilight 7:19 AM EST 5:27 PM EST
Nautical Twilight 6:43 AM EST 6:03 PM EST
Astronomical Twilight 6:08 AM EST 6:38 PM EST
Moon 1:34 PM EST (12/11) 2:04 AM EST (12/11)
Length of Visible Light 10h 08m
Length of Day
9h 04m
Waxing Gibbous, 71% of the Moon is Illuminated
Dec 11
Waxing Gibbous
Dec 17
Full
Dec 25
Last Quarter
Jan 1
New
Jan 7
First Quarter

Hourly Weather History & Observations

Time (EST) Temp. Windchill Dew Point Humidity Pressure Visibility Wind Dir Wind Speed Gust Speed Precip Events Conditions
12:17 AM 19.4 °F 12.8 °F 8.6 °F 63% 30.16 in 10.0 mi West 4.6 mph - N/A   Mostly Cloudy
12:37 AM 17.6 °F 8.2 °F 8.6 °F 68% 30.15 in 10.0 mi West 6.9 mph - N/A   Scattered Clouds
12:57 AM 17.6 °F 9.3 °F 8.6 °F 68% 30.15 in 10.0 mi West 5.8 mph - N/A   Clear
1:17 AM 17.6 °F 10.7 °F 8.6 °F 68% 30.16 in 10.0 mi WSW 4.6 mph - N/A   Clear
1:37 AM 17.6 °F 12.3 °F 8.6 °F 68% 30.16 in 10.0 mi WSW 3.5 mph - N/A   Clear
1:57 AM 17.6 °F 12.3 °F 8.6 °F 68% 30.17 in 10.0 mi SW 3.5 mph - N/A   Clear
2:17 AM 17.6 °F - 10.4 °F 73% 30.18 in 10.0 mi Calm Calm - N/A   Scattered Clouds
2:37 AM 15.8 °F 10.2 °F 10.4 °F 79% 30.19 in 10.0 mi WSW 3.5 mph - N/A   Scattered Clouds
2:57 AM 17.6 °F 9.3 °F 10.4 °F 73% 30.19 in 10.0 mi WSW 5.8 mph - N/A   Mostly Cloudy
3:17 AM 19.4 °F 11.5 °F 12.2 °F 74% 30.20 in 10.0 mi WSW 5.8 mph - N/A   Overcast
3:37 AM 19.4 °F 14.3 °F 12.2 °F 74% 30.19 in 7.0 mi WSW 3.5 mph - N/A Snow Light Snow
3:57 AM 17.6 °F - 12.2 °F 79% 30.19 in 10.0 mi Calm Calm - N/A   Scattered Clouds
4:17 AM 17.6 °F 12.3 °F 12.2 °F 79% 30.19 in 7.0 mi West 3.5 mph - N/A Snow Light Snow
4:37 AM 17.6 °F 12.3 °F 12.2 °F 79% 30.19 in 7.0 mi WSW 3.5 mph - N/A Snow Light Snow
4:57 AM 19.4 °F 11.5 °F 12.2 °F 74% 30.20 in 10.0 mi West 5.8 mph - N/A Snow Light Snow
5:17 AM 19.4 °F 14.3 °F 12.2 °F 74% 30.20 in 10.0 mi SW 3.5 mph - N/A Snow Light Snow
5:37 AM 19.4 °F 12.8 °F 12.2 °F 74% 30.21 in 10.0 mi WSW 4.6 mph - N/A   Overcast
5:57 AM 19.4 °F 11.5 °F 12.2 °F 74% 30.21 in 10.0 mi WSW 5.8 mph - N/A   Overcast
6:17 AM 19.4 °F 11.5 °F 10.4 °F 68% 30.21 in 10.0 mi WSW 5.8 mph - N/A   Overcast
6:37 AM 19.4 °F 12.8 °F 10.4 °F 68% 30.21 in 10.0 mi WSW 4.6 mph - N/A   Overcast
6:57 AM 19.4 °F 10.4 °F 12.2 °F 74% 30.22 in 10.0 mi WSW 6.9 mph - N/A   Overcast
7:17 AM 19.4 °F 11.5 °F 12.2 °F 74% 30.22 in 10.0 mi WSW 5.8 mph - N/A   Overcast
7:37 AM 19.4 °F 9.5 °F 12.2 °F 74% 30.22 in 10.0 mi WSW 8.1 mph - N/A   Overcast
7:57 AM 19.4 °F 11.5 °F 12.2 °F 74% 30.22 in 10.0 mi SW 5.8 mph - N/A   Overcast
9:02 AM 19.4 °F 11.5 °F 12.2 °F 74% 30.24 in 4.0 mi West 5.8 mph - N/A Snow Light Snow
9:17 AM 19.4 °F 12.8 °F 14.0 °F 80% 30.24 in 3.0 mi West 4.6 mph - N/A Snow Light Snow
9:37 AM 21.2 °F 13.6 °F 14.0 °F 74% 30.25 in 4.0 mi WSW 5.8 mph - N/A   Haze
9:57 AM 21.2 °F 12.6 °F 14.0 °F 74% 30.26 in 3.0 mi West 6.9 mph - N/A Snow Light Snow
10:17 AM 21.2 °F 12.6 °F 15.8 °F 80% 30.26 in 2.5 mi West 6.9 mph - N/A Snow Light Snow
10:37 AM 21.2 °F 14.9 °F 15.8 °F 80% 30.26 in 1.0 mi WSW 4.6 mph - N/A Snow Light Snow
10:57 AM 21.2 °F 14.9 °F 15.8 °F 80% 30.26 in 0.8 mi West 4.6 mph - N/A Snow Light Snow
11:17 AM 21.2 °F 14.9 °F 17.6 °F 86% 30.25 in 1.0 mi WSW 4.6 mph - N/A Snow Light Snow
11:37 AM 19.4 °F 11.5 °F 17.6 °F 93% 30.24 in 0.5 mi WNW 5.8 mph - N/A Snow Snow
11:57 AM 19.4 °F 8.6 °F 15.8 °F 86% 30.24 in 0.5 mi WNW 9.2 mph - N/A Snow Snow
12:17 PM 19.4 °F 11.5 °F 15.8 °F 86% 30.24 in 1.5 mi West 5.8 mph - N/A Snow Light Snow
12:37 PM 19.4 °F 10.4 °F 14.0 °F 80% 30.23 in 5.0 mi West 6.9 mph - N/A Snow Light Snow
12:57 PM 21.2 °F 10.9 °F 14.0 °F 74% 30.22 in 3.0 mi WNW 9.2 mph - N/A Snow Light Snow
1:17 PM 21.2 °F 10.1 °F 12.2 °F 68% 30.22 in 10.0 mi WNW 10.4 mph - N/A   Overcast
1:37 PM 21.2 °F 11.7 °F 12.2 °F 68% 30.22 in 10.0 mi West 8.1 mph - N/A   Overcast
1:57 PM 21.2 °F 10.9 °F 10.4 °F 63% 30.22 in 10.0 mi West 9.2 mph - N/A   Overcast
2:17 PM 19.4 °F 5.5 °F 12.2 °F 74% 30.22 in 10.0 mi WNW 15.0 mph 18.4 mph N/A   Overcast
2:37 PM 19.4 °F 7.9 °F 10.4 °F 68% 30.22 in 7.0 mi WNW 10.4 mph 16.1 mph N/A Snow Light Snow
2:57 PM 19.4 °F 9.5 °F 10.4 °F 68% 30.22 in 10.0 mi West 8.1 mph - N/A   Overcast
3:17 PM 19.4 °F 9.5 °F 10.4 °F 68% 30.23 in 10.0 mi WNW 8.1 mph - N/A   Overcast
3:37 PM 19.4 °F 7.9 °F 10.4 °F 68% 30.24 in 10.0 mi West 10.4 mph - N/A   Overcast
3:57 PM 19.4 °F 10.4 °F 8.6 °F 63% 30.25 in 10.0 mi West 6.9 mph - N/A   Overcast
4:17 PM 19.4 °F 7.9 °F 6.8 °F 58% 30.25 in 10.0 mi West 10.4 mph - N/A   Mostly Cloudy
4:37 PM 17.6 °F 5.0 °F 6.8 °F 63% 30.26 in 10.0 mi WNW 11.5 mph - N/A   Overcast
4:57 PM 17.6 °F 6.4 °F 5.0 °F 58% 30.27 in 10.0 mi WNW 9.2 mph - N/A   Mostly Cloudy
5:17 PM 15.8 °F 7.2 °F 3.2 °F 58% 30.28 in 10.0 mi WNW 5.8 mph - N/A   Scattered Clouds
5:37 PM 15.8 °F 8.6 °F 3.2 °F 58% 30.29 in 10.0 mi WNW 4.6 mph - N/A   Mostly Cloudy
5:57 PM 14.0 °F 3.9 °F 3.2 °F 62% 30.30 in 10.0 mi WNW 6.9 mph - N/A   Scattered Clouds
6:17 PM 12.2 °F 4.3 °F 1.4 °F 62% 30.30 in 10.0 mi WNW 4.6 mph - N/A   Scattered Clouds
6:37 PM 14.0 °F 6.5 °F 1.4 °F 57% 30.31 in 10.0 mi WNW 4.6 mph - N/A   Clear
6:57 PM 12.2 °F 2.9 °F -0.4 °F 57% 30.32 in 10.0 mi WNW 5.8 mph - N/A   Clear
7:17 PM 12.2 °F 4.3 °F -0.4 °F 57% 30.33 in 10.0 mi WNW 4.6 mph - N/A   Clear
7:37 PM 12.2 °F 4.3 °F -0.4 °F 57% 30.34 in 10.0 mi West 4.6 mph - N/A   Clear
7:57 PM 12.2 °F 4.3 °F -0.4 °F 57% 30.35 in 10.0 mi West 4.6 mph - N/A   Clear
8:17 PM 12.2 °F 2.9 °F -0.4 °F 57% 30.35 in 10.0 mi West 5.8 mph - N/A   Clear
8:37 PM 10.4 °F 4.0 °F -0.4 °F 62% 30.36 in 10.0 mi West 3.5 mph - N/A   Clear
8:57 PM 10.4 °F 4.0 °F -0.4 °F 62% 30.36 in 10.0 mi West 3.5 mph - N/A   Clear
9:17 PM 10.4 °F 2.2 °F -0.4 °F 62% 30.37 in 10.0 mi West 4.6 mph - N/A   Clear
9:37 PM 8.6 °F 2.0 °F -0.4 °F 67% 30.37 in 10.0 mi West 3.5 mph - N/A   Clear
9:57 PM 8.6 °F 2.0 °F -0.4 °F 67% 30.37 in 10.0 mi West 3.5 mph - N/A   Clear
10:17 PM 8.6 °F - -0.4 °F 67% 30.37 in 10.0 mi Calm Calm - N/A   Clear
10:37 PM 8.6 °F -1.3 °F -0.4 °F 67% 30.37 in 10.0 mi West 5.8 mph - N/A   Clear
10:57 PM 6.8 °F -0.1 °F -0.4 °F 72% 30.39 in 10.0 mi WSW 3.5 mph - N/A   Clear
11:17 PM 6.8 °F -0.1 °F -2.2 °F 67% 30.39 in 10.0 mi WSW 3.5 mph - N/A   Clear
11:37 PM 6.8 °F -0.1 °F -2.2 °F 67% 30.39 in 10.0 mi WSW 3.5 mph - N/A   Clear
11:57 PM 6.8 °F -3.5 °F -2.2 °F 67% 30.40 in 10.0 mi WSW 5.8 mph - N/A   Clear